Flag for Canada Weather past 2 weeks in Newmarket, Ontario, Canada

Now
57 °F

Overcast.


Feels Like: 56 °F
Forecast: 50 / 67 °F
Wind: 6 mph from Northwest

Location: Borden

Current Time: Jul 29, 2014 at 3:09:49 AM

Latest Report: Jul 29, 2014 at 2:00 AM


Visibility: 9 mi

Pressure: 29.89 "Hg

Humidity: 88%

Dew point: 54 °F

Location of NewmarketLocation

Historic Weather in Newmarket — Graph

°F

Newmarket temperature yesterday

Maximum temperature yesterday: 64 °F (at 12:02 AM)
Minimum temperature yesterday: 57 °F (at 6:53 AM)
Average temperature yesterday: 61 °F

Past Weeks' High & Low Weather Summary

 TemperatureHumidityPressure
High86 °F (Jul 22, 1:00 PM)100% (Jul 22, 2:01 AM)30.25 "Hg (Jul 22, 2:01 AM)
Low43 °F (Jul 17, 3:00 AM)40% (Jul 24, 5:00 PM)29.64 "Hg (Jul 27, 7:00 PM)
Average65 °F75%29.95 "Hg
* Reported Jul 14 1:00 AM — Jul 29 1:00 AM, Newmarket, Weather by CustomWeather, © 2014

Note: Actual official high and low records may vary slightly from our data, if they occured in-between our weather recording intervals... More about our weather records

Advertising

Newmarket weather history for previous 24 hours

 ConditionsComfort  
Time TempWeatherWind HumidityBarometerVisibility
1:00 AM
Jul 29
59 °FOvercast.5 mph82%29.89 "Hg9 mi
12:00 AM59 °FOvercast.5 mph82%29.89 "Hg9 mi
11:00 PM
Jul 28
59 °FOvercast.8 mph82%29.89 "Hg9 mi
10:00 PM59 °FOvercast.6 mph77%29.89 "Hg9 mi
9:00 PM61 °FOvercast.8 mph72%29.87 "Hg9 mi
8:00 PM61 °FPartly sunny.9 mph68%29.86 "Hg9 mi
7:00 PM61 °FPartly sunny.14 mph72%29.86 "Hg9 mi
6:00 PM63 °FSunny.13 mph64%29.85 "Hg9 mi
5:00 PM63 °FPartly sunny.16 mph64%29.85 "Hg9 mi
4:00 PM63 °FPartly sunny.16 mph64%29.84 "Hg9 mi
3:00 PM63 °FSunny.15 mph64%29.83 "Hg9 mi
2:00 PM63 °FSunny.16 mph68%29.81 "Hg9 mi
1:04 PM63 °FPartly sunny.16 mph73%29.80 "Hg9 mi
12:00 PM63 °FPartly sunny.8 mph73%29.79 "Hg9 mi
11:03 AM61 °FPartly sunny.12 mph77%29.78 "Hg9 mi
10:00 AM59 °FMore clouds than sun.12 mph82%29.77 "Hg9 mi
9:57 AM59 °FMore clouds than sun.13 mph82%29.77 "Hg9 mi
9:00 AM57 °FOvercast.9 mph94%29.75 "Hg9 mi
8:00 AM57 °FOvercast.9 mph94%29.74 "Hg9 mi
7:00 AM57 °FPassing clouds.9 mph100%29.73 "Hg6 mi
6:53 AM57 °FOvercast.13 mph100%29.72 "Hg7 mi
6:02 AM59 °FMostly cloudy.8 mph100%29.71 "Hg6 mi
5:00 AM59 °FOvercast.6 mph100%29.68 "Hg5 mi
4:00 AM61 °FOvercast.8 mph100%29.65 "Hg4 mi
3:04 AM63 °FLow clouds.12 mph100%29.64 "Hg2 mi
Weather by CustomWeather, © 2014

See weather overviewHow to use our weather pages